Oconto, WI

3:38 PM CST on December 14, 2019 (GMT -0600)
Oconto Municipal

Weather History for KOCQ - October, 2019

Change the Weather History Date:

Sunday, October 20, 2019

  Actual Average Record
Temperature  
Mean Temperature 51 °F -  
Max Temperature 60 °F 54 °F 75 °F (2017)
Min Temperature 42 °F 33 °F 26 °F (2013)
Degree Days  
Heating Degree Days 14    
Growing Degree Days 1 (Base 50)    
Moisture  
Dew Point 45 °F    
Average Humidity 86    
Maximum Humidity 99    
Minimum Humidity 60    
Precipitation  
Precipitation 0.00 in - - ()
Sea Level Pressure  
Sea Level Pressure 29.87 in    
Wind  
Wind Speed 4 mph (WSW)    
Max Wind Speed 9 mph    
Max Gust Speed -    
Visibility 10 miles    
Events      
Averages and records for this station are not official NWS values.
T = Trace of Precipitation, MM = Missing Value Source: NWS Daily Summary

Daily Weather History Graph

Daily Weather History Graph

Search for Another Location

Airport or City:

Astronomy

Oct. 20, 2019 Rise Set
Actual Time 7:13 AM CDT 5:58 PM CDT
Civil Twilight 6:43 AM CDT 6:28 PM CDT
Nautical Twilight 6:09 AM CDT 7:02 PM CDT
Astronomical Twilight 5:35 AM CDT 7:36 PM CDT
Moon 10:57 PM CDT (10/20) 1:51 PM CDT (10/20)
Length of Visible Light 11h 44m
Length of Day
10h 45m
Waning Gibbous, 59% of the Moon is Illuminated
Oct 20
Waning Gibbous
Oct 21
Last Quarter
Oct 27
New
Nov 4
First Quarter
Nov 12
Full

Hourly Weather History & Observations

Time (CDT) Temp. Windchill Dew Point Humidity Pressure Visibility Wind Dir Wind Speed Gust Speed Precip Events Conditions
12:15 AM 49.3 °F - 48.6 °F 97% 29.75 in 10.0 mi WNW 3.5 mph - N/A   Overcast
12:35 AM 49.3 °F - 48.4 °F 97% 29.74 in 10.0 mi WNW 6.9 mph - N/A   Overcast
12:55 AM 49.1 °F - 47.5 °F 94% 29.75 in 10.0 mi WNW 6.9 mph - N/A   Overcast
1:15 AM 49.1 °F - 46.9 °F 92% 29.75 in 10.0 mi WNW 8.1 mph - N/A   Overcast
1:35 AM 48.6 °F - 46.4 °F 92% 29.75 in 10.0 mi West 9.2 mph - N/A   Overcast
1:55 AM 48.4 °F - 46.4 °F 93% 29.76 in 10.0 mi WNW 5.8 mph - N/A   Overcast
2:15 AM 48.2 °F - 45.9 °F 92% 29.76 in 10.0 mi Calm Calm - N/A   Overcast
2:35 AM 48.0 °F - 45.5 °F 91% 29.76 in 10.0 mi NW 4.6 mph - N/A   Overcast
2:55 AM 47.7 °F - 45.5 °F 92% 29.77 in 10.0 mi WNW 3.5 mph - N/A   Overcast
3:15 AM 47.3 °F - 45.5 °F 93% 29.77 in 10.0 mi Calm Calm - N/A   Overcast
3:35 AM 47.1 °F - 45.5 °F 94% 29.78 in 10.0 mi West 4.6 mph - N/A   Overcast
3:55 AM 47.3 °F - 45.3 °F 93% 29.78 in 10.0 mi WNW 4.6 mph - N/A   Overcast
4:15 AM 46.9 °F - 45.1 °F 93% 29.79 in 10.0 mi West 6.9 mph - N/A   Overcast
4:35 AM 46.8 °F - 45.0 °F 93% 29.80 in 10.0 mi WNW 4.6 mph - N/A   Overcast
4:55 AM 46.6 °F - 45.0 °F 94% 29.80 in 10.0 mi WNW 6.9 mph - N/A   Overcast
5:15 AM 46.4 °F 43.5 °F 44.8 °F 94% 29.81 in 10.0 mi WNW 5.8 mph - N/A   Overcast
5:55 AM 46.6 °F - 45.1 °F 95% 29.82 in 10.0 mi West 4.6 mph - N/A   Overcast
6:15 AM 46.6 °F - 45.3 °F 95% 29.82 in 10.0 mi West 3.5 mph - N/A   Overcast
6:35 AM 46.4 °F 44.3 °F 44.8 °F 94% 29.83 in 10.0 mi WNW 4.6 mph - N/A   Overcast
6:55 AM 46.4 °F 43.5 °F 44.8 °F 94% 29.83 in 10.0 mi West 5.8 mph - N/A   Overcast
7:15 AM 46.4 °F 44.3 °F 45.0 °F 95% 29.84 in 10.0 mi West 4.6 mph - N/A   Overcast
7:35 AM 46.4 °F 44.3 °F 44.6 °F 93% 29.84 in 10.0 mi WNW 4.6 mph - N/A   Overcast
7:55 AM 46.4 °F 43.5 °F 44.8 °F 94% 29.85 in 10.0 mi West 5.8 mph - N/A   Overcast
8:15 AM 46.6 °F - 44.8 °F 93% 29.87 in 10.0 mi West 9.2 mph - N/A   Overcast
8:35 AM 46.6 °F - 44.8 °F 93% 29.87 in 10.0 mi West 4.6 mph - N/A   Overcast
8:55 AM 46.8 °F - 44.8 °F 93% 29.88 in 10.0 mi WNW 4.6 mph - N/A   Overcast
9:15 AM 47.3 °F - 44.6 °F 90% 29.89 in 10.0 mi West 3.5 mph - N/A   Overcast
9:35 AM 48.2 °F - 44.8 °F 88% 29.89 in 10.0 mi West 5.8 mph - N/A   Overcast
9:55 AM 49.1 °F - 44.8 °F 85% 29.89 in 10.0 mi WSW 4.6 mph - N/A   Scattered Clouds
10:15 AM 50.0 °F - 45.1 °F 83% 29.90 in 10.0 mi West 4.6 mph - N/A   Scattered Clouds
10:35 AM 51.6 °F - 45.7 °F 80% 29.90 in 10.0 mi SW 3.5 mph - N/A   Scattered Clouds
10:55 AM 52.9 °F - 45.5 °F 76% 29.90 in 10.0 mi Calm Calm - N/A   Clear
11:15 AM 54.0 °F - 45.1 °F 72% 29.90 in 10.0 mi West 3.5 mph - N/A   Clear
11:35 AM 55.4 °F - 45.0 °F 68% 29.91 in 10.0 mi WNW 4.6 mph - N/A   Clear
11:55 AM 56.7 °F - 45.3 °F 66% 29.91 in 10.0 mi Calm Calm - N/A   Clear
12:15 PM 57.6 °F - 47.3 °F 69% 29.91 in 10.0 mi SSE 5.8 mph - N/A   Clear
12:35 PM 57.4 °F - 47.3 °F 69% 29.90 in 10.0 mi SE 3.5 mph - N/A   Clear
12:55 PM 57.9 °F - 47.7 °F 69% 29.89 in 10.0 mi SE 3.5 mph - N/A   Clear
1:15 PM 57.9 °F - 48.2 °F 70% 29.89 in 10.0 mi SSE 6.9 mph - N/A   Clear
1:35 PM 57.4 °F - 47.8 °F 70% 29.89 in 10.0 mi South 5.8 mph - N/A   Clear
1:55 PM 58.5 °F - 47.7 °F 67% 29.90 in 10.0 mi SSE 5.8 mph - N/A   Clear
2:15 PM 58.8 °F - 47.3 °F 66% 29.90 in 10.0 mi SSE 6.9 mph - N/A   Clear
2:35 PM 59.9 °F - 47.3 °F 63% 29.90 in 10.0 mi SE 6.9 mph - N/A   Clear
2:55 PM 59.9 °F - 47.8 °F 64% 29.89 in 10.0 mi SE 6.9 mph - N/A   Clear
3:15 PM 60.1 °F - 47.5 °F 63% 29.89 in 10.0 mi SE 6.9 mph - N/A   Clear
3:55 PM 60.1 °F - 46.0 °F 60% 29.91 in 10.0 mi SSE 6.9 mph - N/A   Clear
4:15 PM 59.9 °F - 46.0 °F 60% 29.91 in 10.0 mi South 5.8 mph - N/A   Clear
4:35 PM 59.5 °F - 45.7 °F 60% 29.92 in 10.0 mi South 5.8 mph - N/A   Clear
4:55 PM 59.0 °F - 45.0 °F 60% 29.92 in 10.0 mi SE 4.6 mph - N/A   Clear
5:15 PM 56.5 °F - 45.5 °F 67% 29.92 in 10.0 mi SE 3.5 mph - N/A   Clear
5:35 PM 54.5 °F - 45.1 °F 71% 29.92 in 10.0 mi Calm Calm - N/A   Clear
5:55 PM 52.0 °F - 45.7 °F 79% 29.92 in 10.0 mi Calm Calm - N/A   Clear
6:15 PM 48.7 °F - 44.4 °F 85% 29.92 in 10.0 mi Calm Calm - N/A   Clear
6:35 PM 46.6 °F - 43.9 °F 90% 29.92 in 10.0 mi Calm Calm - N/A   Clear
6:55 PM 47.8 °F - 45.3 °F 91% 29.92 in 10.0 mi Calm Calm - N/A   Clear
7:15 PM 46.4 °F - 44.8 °F 94% 29.92 in 10.0 mi Calm Calm - N/A   Clear
7:35 PM 45.5 °F - 43.7 °F 93% 29.93 in 10.0 mi Calm Calm - N/A   Clear
7:55 PM 44.8 °F - 43.5 °F 95% 29.93 in 10.0 mi Calm Calm - N/A   Clear
8:15 PM 44.4 °F - 43.5 °F 97% 29.94 in 10.0 mi Calm Calm - N/A   Clear
8:35 PM 42.8 °F - 41.9 °F 97% 29.94 in 10.0 mi Calm Calm - N/A   Clear
8:55 PM 44.2 °F - 43.3 °F 97% 29.94 in 10.0 mi Calm Calm - N/A   Clear
9:15 PM 43.2 °F - 42.1 °F 96% 29.94 in 10.0 mi Calm Calm - N/A   Clear
9:35 PM 43.5 °F - 42.8 °F 97% 29.94 in 7.0 mi Calm Calm - N/A   Clear
9:55 PM 42.4 °F - 41.7 °F 97% 29.94 in 5.0 mi Calm Calm - N/A   Clear
10:15 PM 43.9 °F - 43.3 °F 98% 29.94 in 7.0 mi Calm Calm - N/A   Clear
10:35 PM 43.0 °F - 42.4 °F 98% 29.94 in 5.0 mi Calm Calm - N/A   Clear
10:55 PM 43.7 °F - 43.2 °F 98% 29.94 in 5.0 mi Calm Calm - N/A   Clear
11:15 PM 43.7 °F - 43.2 °F 98% 29.94 in 7.0 mi Calm Calm - N/A   Clear
11:35 PM 42.8 °F - 42.4 °F 99% 29.94 in 3.0 mi Calm Calm - N/A   Clear
11:55 PM 43.3 °F - 43.0 °F 99% 29.95 in 3.0 mi Calm Calm - N/A   Clear